Home   Weather   Rishon LeZion   Past weeks

Flag for Israel Past Weather in Rishon LeZion, Israel — Yesterday and Last 2 Weeks

Now
81 °F

Clear.


Feels Like: 85 °F
Forecast: 79 / 93 °F
Wind: 3 mph from North

Location: Ben Gurion International Airport

Current Time: Jul 26, 2017 at 1:58:06 am

Latest Report: Jul 26, 2017 at 1:20 am


Visibility: 10 mi

Pressure: 29.68 "Hg

Humidity: 79%

Dew Point: 73 °F

Location of Rishon LeZionLocation

Past Weather in Rishon LeZion — Graph

°F

Rishon LeZion Temperature Yesterday

Maximum temperature yesterday: 91 °F (at 10:50 am)
Minimum temperature yesterday: 77 °F (at 5:20 am)
Average temperature yesterday: 85 °F

High & Low Weather Summary for the Past Weeks

 TemperatureHumidityPressure
High99 °F (Jul 16, 12:50 pm)89% (Jul 13, 1:50 am)29.86 "Hg (Jul 13, 1:50 am)
Low72 °F (Jul 16, 5:20 am)24% (Jul 16, 1:20 pm)29.59 "Hg (Jul 13, 5:20 pm)
Average84 °F64%29.73 "Hg
* Reported Jul 11 12:20 am — Jul 26 12:50 am, Rishon LeZion. Weather by CustomWeather, © 2017

Note: Actual official high and low records may vary slightly from our data, if they occured in-between our weather recording intervals... More about our weather records

Advertising

Rishon LeZion Weather History for the Previous 24 Hours

Scroll right to see more
 ConditionsComfort  
Time TempWeatherWind HumidityBarometerVisibility
12:50 am
Wed, Jul 26
82 °FClear.2 mph74%29.68 "Hg10 mi
12:20 am82 °FClear.1 mph74%29.68 "Hg10 mi
11:50 pm
Tue, Jul 25
81 °FClear.3 mph79%29.68 "Hg10 mi
11:20 pm81 °FClear.3 mph84%29.68 "Hg10 mi
10:50 pm82 °FClear.2 mph79%29.68 "Hg10 mi
10:20 pm84 °FClear.2 mph74%29.68 "Hg10 mi
9:50 pm84 °FClear.2 mph74%29.68 "Hg10 mi
9:20 pm84 °FClear.5 mph70%29.68 "Hg10 mi
8:50 pm84 °FClear.6 mph70%29.68 "Hg10 mi
8:20 pm84 °FClear.7 mph70%29.65 "Hg10 mi
7:50 pm86 °FClear.8 mph66%29.65 "Hg10 mi
7:20 pm86 °FSunny.10 mph59%29.65 "Hg10 mi
6:50 pm88 °FSunny.10 mph59%29.65 "Hg10 mi
6:20 pm90 °FSunny.12 mph52%29.65 "Hg10 mi
5:50 pm90 °FPassing clouds.10 mph52%29.65 "HgN/A
5:20 pm90 °FSunny.12 mph55%29.65 "Hg10 mi
4:50 pm90 °FSunny.14 mph55%29.65 "Hg10 mi
4:20 pm91 °FSunny.14 mph56%29.65 "Hg10 mi
3:50 pm91 °FSunny.12 mph56%29.65 "Hg10 mi
3:20 pm91 °FSunny.12 mph56%29.65 "Hg10 mi
2:50 pm91 °FPassing clouds.9 mph59%29.65 "HgN/A
2:20 pm91 °FSunny.10 mph56%29.65 "Hg10 mi
1:50 pm91 °FSunny.9 mph56%29.65 "Hg10 mi
1:20 pm91 °FSunny.13 mph56%29.65 "Hg10 mi
12:50 pm91 °FSunny.14 mph56%29.65 "Hg10 mi
12:20 pm91 °FPassing clouds.9 mph56%29.65 "HgN/A
11:50 am90 °FSunny.10 mph59%29.68 "Hg10 mi
11:20 am91 °FSunny.5 mph49%29.68 "Hg10 mi
10:50 am91 °FSunny.3 mph52%29.68 "Hg10 mi
10:20 am90 °FSunny.3 mph59%29.68 "Hg10 mi
9:50 am86 °FSunny.2 mph62%29.68 "Hg10 mi
9:20 am86 °FPassing clouds.3 mph66%29.68 "HgN/A
8:50 am82 °FScattered clouds.3 mph74%29.68 "HgN/A
8:20 am82 °FScattered clouds.3 mph74%29.68 "HgN/A
7:50 am81 °FScattered clouds.5 mph79%29.68 "Hg5 mi
7:20 am81 °FScattered clouds.5 mph79%29.68 "Hg5 mi
6:50 am79 °FPassing clouds.6 mph79%29.68 "Hg5 mi
6:20 am79 °FHaze.3 mph84%29.68 "HgN/A
5:50 am79 °FPassing clouds.5 mph84%29.68 "HgN/A
5:20 am77 °FPassing clouds.3 mph83%29.68 "HgN/A
4:50 am79 °FPassing clouds.3 mph84%29.68 "HgN/A
4:20 am79 °FPassing clouds.1 mph84%29.68 "HgN/A
3:50 am79 °FPassing clouds.2 mph84%29.68 "HgN/A
3:20 am81 °FPassing clouds.2 mph79%29.68 "HgN/A
2:50 am81 °FPassing clouds.3 mph79%29.68 "HgN/A
2:20 am81 °FClear.3 mph79%29.68 "Hg10 mi
1:50 am81 °FClear.3 mph79%29.68 "Hg10 mi
1:20 am81 °FClear.5 mph79%29.68 "Hg10 mi
Weather by CustomWeather, © 2017

See weather overviewHow to use our weather pages